Lid_Strength_Index
3 3 3 3 3 3 4 3 4 4 4 4 4 4 4 4 4 7 9 8 9 12 11 8 7 8 9 9 10 9 9 8 9 12 12 12 12 12 12 12 15 13 14 14 14 16 16 8 9 12 10 8 8 7
3 3 4 3 3 3 4 4 3 4 4 4 4 4 4 4 4 5 10 7 7 10 11 8 7 6 7 7 9 9 8 9 8 11 11 11 13 12 13 16 10 15 12 14 13 13 9 7 8 7 6 7 7 7
3 3 4 4 4 4 4 4 3 4 4 4 4 4 4 5 5 5 9 9 9 11 10 10 8 6 6 6 6 10 6 6 6 7 9 10 12 11 14 14 13 10 9 12 12 10 9 8 6 6 6 6 6 5
3 3 3 4 4 4 3 4 4 4 4 4 4 4 4 5 5 5 8 9 9 10 13 10 5 6 4 5 5 6 4 5 5 5 9 10 11 8 11 11 11 10 9 11 11 10 8 7 6 6 6 5 5 5
3 3 3 4 4 4 3 3 4 3 4 4 4 4 4 4 4 6 8 8 8 10 13 11 7 6 5 5 5 5 5 8 7 8 9 11 8 9 9 10 11 9 10 12 13 9 9 9 7 5 6 6 5 5
3 3 3 4 4 4 4 4 4 3 4 4 4 4 4 4 4 8 10 7 7 6 9 13 8 7 5 5 5 5 5 6 7 7 8 7 5 8 11 11 9 8 7 7 9 6 6 6 5 4 5 5 5 5
2 3 3 4 4 4 4 4 3 3 4 4 4 3 3 3 7 9 8 6 4 5 8 11 11 7 4 5 6 6 5 6 6 6 7 8 7 8 10 12 9 7 7 6 5 6 7 6 7 5 5 4 4 5
1 2 3 3 4 4 4 4 4 4 4 4 4 3 3 3 5 9 7 4 5 6 7 11 11 8 4 7 7 6 7 6 6 7 6 8 8 9 11 9 7 6 6 6 6 5 6 6 5 5 4 4 5 5
1 1 2 3 4 4 4 4 4 4 4 4 4 3 5 7 8 6 2 3 6 7 8 8 11 12 5 6 6 6 7 9 7 9 8 8 10 11 9 8 8 6 7 6 5 6 5 6 7 5 5 5 5 6
1 2 2 2 3 4 4 4 4 4 4 3 6 7 6 5 0 2 6 6 6 7 7 11 9 11 7 8 9 9 7 10 11 9 8 9 10 8 7 7 6 5 5 5 7 8 7 7 6 6 5 5 5 5
1 2 2 2 2 3 4 4 4 4 4 7 8 6 6 1 6 6 8 9 9 9 8 8 9 9 6 10 10 8 10 10 13 10 10 11 12 9 7 5 5 5 5 5 5 5 5 5 5 5 5 4 4 4
1 1 2 2 2 2 3 4 4 7 9 8 8 7 8 7 7 9 9 9 9 11 7 8 7 7 7 6 9 8 11 10 13 8 11 13 10 7 6 6 5 6 4 4 4 4 4 4 5 5 5 5 4 4
1 1 2 2 2 2 3 4 4 4 4 7 9 10 9 9 15 11 13 11 11 8 7 7 8 7 7 7 8 9 12 13 8 12 13 11 8 6 6 6 5 4 4 4 4 4 4 4 4 4 4 4 4 4
1 1 1 2 2 2 3 3 4 5 8 9 11 17 14 15 12 9 9 9 7 6 7 7 7 9 8 9 9 11 10 10 13 13 14 9 8 6 6 5 5 5 5 5 5 5 4 4 4 4 3 3 4 4
0 1 1 2 2 2 3 3 3 7 8 9 8 16 11 9 8 8 8 8 6 6 6 8 8 8 9 11 10 10 12 13 13 13 10 8 6 6 6 5 5 5 6 5 6 5 4 4 4 4 4 4 5 5
1 1 3 2 2 2 2 4 6 7 8 9 10 11 9 9 9 8 8 9 7 6 7 7 10 10 10 10 12 13 13 14 12 9 7 6 6 6 5 5 5 5 5 5 4 4 4 4 4 5 4 6 6 5
1 5 1 1 1 2 2 7 6 7 8 9 11 9 9 9 8 9 7 7 6 8 10 9 12 11 9 12 12 10 12 10 8 8 8 8 7 6 5 5 5 4 4 5 6 6 6 5 5 5 5 4 3 3
4 3 0 1 2 3 5 7 7 8 11 11 12 11 9 6 7 7 6 5 5 7 7 10 8 11 12 13 12 9 8 7 7 6 6 6 6 6 4 5 4 4 5 5 6 6 6 6 6 6 5 4 4 3
2 2 0 1 3 6 6 6 7 11 10 10 10 8 7 7 7 6 7 6 7 7 8 9 10 11 10 8 9 8 8 7 8 7 7 6 4 4 5 5 5 5 5 6 6 6 5 5 5 4 4 4 4 4
-0 0 1 2 3 6 8 10 7 11 12 10 8 8 8 9 8 6 5 5 6 7 9 9 9 8 8 7 6 7 7 7 7 8 7 6 5 5 6 6 6 5 5 5 5 6 5 4 4 4 4 5 5 5
2 3 2 4 5 7 8 10 10 9 10 10 9 9 9 7 7 7 7 6 7 10 10 9 9 8 6 6 6 7 7 5 6 7 7 8 6 6 6 6 5 6 6 5 5 5 5 5 5 5 5 5 5 5
4 1 5 4 7 7 10 9 10 9 10 9 8 8 9 9 9 9 8 11 10 10 9 9 8 7 7 8 7 6 5 5 6 6 7 7 7 7 6 6 6 6 6 6 6 6 6 5 5 5 5 5 5 4
2 3 5 6 9 13 14 9 10 8 10 9 9 10 10 10 10 9 12 12 11 9 9 8 7 7 7 6 5 5 5 5 6 6 6 6 5 5 6 6 6 6 7 6 5 5 6 6 5 4 4 4 4 4
3 7 9 8 10 15 9 9 8 9 10 11 12 12 12 11 10 13 14 13 11 9 7 7 6 7 6 6 6 6 6 5 6 6 6 6 6 6 5 6 6 6 6 5 5 5 5 5 6 5 5 5 5 6
13 14 11 17 9 10 11 11 11 11 13 12 12 12 12 11 14 15 15 13 11 10 8 6 6 6 7 7 6 6 5 5 6 7 6 5 6 5 5 5 5 5 4 5 5 5 5 5 6 7 7 8 8 8
15 10 10 10 11 11 11 12 13 12 12 11 11 10 10 12 14 15 13 11 11 10 8 7 7 7 6 6 6 6 5 5 5 6 5 5 5 5 6 6 6 6 4 4 5 5 5 5 6 7 8 9 9 8
12 11 9 8 9 10 12 11 11 12 12 11 10 11 12 14 14 12 10 9 9 8 7 6 6 6 6 5 5 5 4 4 4 4 4 4 4 4 4 4 5 4 3 3 3 3 5 6 7 7 7 7 7 6
11 11 13 11 12 11 12 11 10 10 9 9 10 12 13 13 12 9 9 8 7 7 7 7 6 5 5 6 6 5 5 5 5 5 6 6 6 6 6 7 7 8 5 5 5 4 5 5 5 5 6 6 6 6
12 10 11 11 10 10 9 9 9 8 8 9 10 11 11 9 8 8 8 7 6 7 8 9 9 7 7 7 6 5 5 6 8 9 9 9 9 8 7 6 7 8 7 7 8 7 6 6 6 6 5 5 4 4
8 9 10 9 10 10 9 8 8 7 6 7 7 7 8 8 7 6 7 6 8 8 8 8 8 8 9 9 8 7 6 7 8 8 9 10 9 8 7 6 6 7 7 6 7 7 7 7 6 6 6 5 4 4
6 7 8 8 9 8 7 7 6 6 6 7 7 8 9 8 7 6 6 6 6 6 6 7 7 7 7 7 8 8 8 7 6 6 7 7 7 7 6 5 5 5 6 5 5 5 3 4 4 4 5 5 6 6
6 7 8 9 9 7 6 7 8 8 8 8 8 8 8 8 9 6 5 5 6 7 7 7 7 8 7 7 7 7 8 7 7 7 7 6 6 5 5 5 4 4 4 4 4 4 4 4 5 6 6 7 7 7
6 7 7 8 8 7 7 7 8 8 8 8 8 7 8 8 8 6 4 4 5 5 6 5 5 4 5 6 5 5 6 6 7 8 9 8 8 6 5 5 4 3 3 4 4 5 5 6 7 7 7 7 7 8